Weather History for KYKM - January, 2014

Change the Weather History Date:

Monday, January 20, 2014

  Actual Average Record
Temperature  
Mean Temperature 32 °F 32 °F  
Max Temperature 34 °F 40 °F 58 °F (1972)
Min Temperature 30 °F 24 °F -19 °F (1954)
Degree Days  
Heating Degree Days 33 33  
Month to date heating degree days 586 702  
Since 1 July heating degree days 3157 3365  
Cooling Degree Days 0 0  
Month to date cooling degree days 0 0  
Year to date cooling degree days 0 0  
Moisture  
Dew Point 27 °F    
Average Humidity 80    
Maximum Humidity 85    
Minimum Humidity 75    
Precipitation  
Precipitation 0.00 in 0.03 in 0.50 in (1951)
Month to date precipitation 0.10 0.79  
Year to date precipitation 0.10 0.79  
Snow  
Snow 0.00 in 0.20 in 4.90 in (1951)
Month to date snowfall 0.5 4.0  
Year to date snowfall 0.5 4.0  
Since 1 July snowfall 0.5 17.0  
Snow Depth 0.00 in    
Sea Level Pressure  
Sea Level Pressure 30.55 in    
Wind  
Wind Speed 3 mph (SW)    
Max Wind Speed 9 mph    
Max Gust Speed 13 mph    
Visibility 10 miles    
Events      
T = Trace of Precipitation, MM = Missing Value Source: NWS Daily Summary

Daily Weather History Graph

Daily Weather History Graph

Search for Another Location

Airport or City:

Trip Planner

Search our weather history database for the weather conditions in past years. The results will help you decide how hot, cold, wet, or windy it might be!

Date:

Astronomy

Jan. 20, 2014 Rise Set
Actual Time 7:38 AM PST 4:48 PM PST
Civil Twilight 7:04 AM PST 5:22 PM PST
Nautical Twilight 6:27 AM PST 5:59 PM PST
Astronomical Twilight 5:51 AM PST 6:35 PM PST
Moon 9:48 PM PST (1/20) 9:22 AM PST (1/20)
Length of Visible Light 10h 17m
Length of Day
9h 10m
Waning Gibbous, 82% of the Moon is Illuminated
Jan 20
Waning Gibbous
Jan 23
Last Quarter
Jan 30
New
Feb 6
First Quarter
Feb 14
Full

Hourly Weather History & Observations

Time (PST) Temp. Windchill Dew Point Humidity Pressure Visibility Wind Dir Wind Speed Gust Speed Precip Events Conditions
12:53 AM 33.1 °F 28.7 °F 27.0 °F 78% 30.48 in 10.0 mi North 4.6 mph - N/A   Overcast
1:53 AM 33.1 °F 30.0 °F 27.0 °F 78% 30.48 in 10.0 mi NW 3.5 mph - N/A   Overcast
2:53 AM 33.1 °F 27.7 °F 27.0 °F 78% 30.51 in 10.0 mi WNW 5.8 mph - N/A   Overcast
3:53 AM 32.0 °F - 27.0 °F 82% 30.52 in 10.0 mi Calm Calm - N/A   Overcast
4:53 AM 33.1 °F 30.0 °F 27.0 °F 78% 30.53 in 10.0 mi WSW 3.5 mph - N/A   Overcast
5:53 AM 32.0 °F - 27.0 °F 82% 30.55 in 10.0 mi Calm Calm - N/A   Overcast
6:53 AM 30.9 °F 25.2 °F 27.0 °F 85% 30.56 in 10.0 mi SW 5.8 mph - N/A   Overcast
7:53 AM 30.0 °F 23.2 °F 26.1 °F 85% 30.58 in 10.0 mi WSW 6.9 mph - N/A   Overcast
8:53 AM 30.9 °F 25.2 °F 26.1 °F 82% 30.59 in 10.0 mi WSW 5.8 mph - N/A   Overcast
9:53 AM 32.0 °F 27.5 °F 27.0 °F 82% 30.60 in 10.0 mi WSW 4.6 mph - N/A   Overcast
10:53 AM 33.1 °F - 27.0 °F 78% 30.60 in 10.0 mi Calm Calm - N/A   Overcast
11:53 AM 34.0 °F 31.0 °F 27.0 °F 75% 30.58 in 10.0 mi Variable 3.5 mph - N/A   Overcast
12:53 PM 33.1 °F - 27.0 °F 78% 30.56 in 10.0 mi Calm Calm - N/A   Overcast
1:53 PM 34.0 °F 31.0 °F 27.0 °F 75% 30.55 in 10.0 mi SSE 3.5 mph - N/A   Overcast
2:53 PM 34.0 °F - 27.0 °F 75% 30.55 in 10.0 mi Calm Calm - N/A   Overcast
3:53 PM 33.1 °F 28.7 °F 27.0 °F 78% 30.54 in 10.0 mi SW 4.6 mph - N/A   Overcast
4:53 PM 33.1 °F - 27.0 °F 78% 30.55 in 10.0 mi Calm Calm - N/A   Overcast
5:53 PM 33.1 °F 30.0 °F 27.0 °F 78% 30.55 in 10.0 mi SE 3.5 mph - N/A   Overcast
6:53 PM 32.0 °F 27.5 °F 27.0 °F 82% 30.55 in 10.0 mi South 4.6 mph - N/A   Overcast
7:53 PM 32.0 °F - 27.0 °F 82% 30.55 in 10.0 mi Calm Calm - N/A   Overcast
8:53 PM 32.0 °F - 27.0 °F 82% 30.55 in 10.0 mi Calm Calm - N/A   Overcast
9:53 PM 32.0 °F - 27.0 °F 82% 30.56 in 9.0 mi Calm Calm - N/A   Overcast
10:53 PM 32.0 °F - 27.0 °F 82% 30.55 in 9.0 mi Calm Calm - N/A   Overcast
11:53 PM 32.0 °F - 27.0 °F 82% 30.55 in 8.0 mi Calm Calm - N/A   Overcast